KUIPER-00032

导读

KUIPER-00032是美国亚马逊“柯伊伯项目”下的低轨宽带通信卫星,于2025年4月28日发射升空,是柯伊伯星座3236颗卫星组网计划中的组成部分。该卫星运行于近地轨道,依托Ka波段通信技术,旨在为全球提供高速低延迟的卫星宽带服务,可为偏远地区网络覆盖、企业宽带、无线回程等场景提供支持,助力实现全球无缝互联网接入,是美国私营低轨星座建设的重要节点。

基本信息
目录编号:
63745
目录名称:
KUIPER-00032
国际标识:
2025-088X
轨道中心:
EARTH
卫星名称:
KUIPER-00032
卫星全名:
KUIPER-00032
卫星状态:
在轨 (已飞行501 天)
发射日期:
2025-04-28 UTC
国别 :
美国 (US)
星等 :
--
该卫星已列入 空间交会检测服务 Space Conjunction Data Service (SCDS) ,当前飞行风险评估等级: 无高风险
轨道信息
数据来源 国际轨道数据 AOE轨道数据
星历时间 2026-09-11T14:24:58+0800
7小时前
查看轨道信息
2026-09-06T23:00:00+0800
4天前
查看轨道信息
半长轴 6817.224km 6817.605km
偏心率 0.0005231 0.0004989
轨道倾角 51.866° 51.866°
近地点辐角 63.765° 45.617°
升交点赤经 203.209° 225.830°
平近点角 296.388° 82.153°
近地点 435.52km 436.066km
远地点 442.654km 442.87km
周期 93.362分钟 93.370分钟
每日圈数 15.423802 15.422511
详细信息
使用方式:
暂无
2D轨道图
3D轨道图
轨道高度分析图
轨道倾角分析图
轨道综合分析图
查看轨道综合分析图
与全量物体交会距离演化趋势
与全量物体交会风险概率演化趋势